Flag for Canada Weather past 2 weeks in Victoria, British Columbia, Canada

Now
55 °F

Passing clouds.


Feels Like: 55 °F
Forecast: 54 / 62 °F
Wind: 2 mph from Southeast

Location: Victoria Int. Airportb. C.

Current Time: Sep 22, 2014 at 4:17:24 AM

Latest Report: Sep 22, 2014 at 3:00 AM


Visibility: 30 mi

Pressure: 29.90 "Hg

Humidity: 88%

Dew point: 52 °F

Location of VictoriaLocation

Historic Weather in Victoria — Graph

°F

Victoria temperature yesterday

Maximum temperature yesterday: 73 °F (at 12:00 PM)
Minimum temperature yesterday: 54 °F (at 4:00 AM)
Average temperature yesterday: 62 °F

Past Weeks' High & Low Weather Summary

 TemperatureHumidityPressure
High81 °F (Sep 15, 4:00 PM)100% (Sep 18, 5:00 AM)30.34 "Hg (Sep 18, 5:00 AM)
Low45 °F (Sep 12, 4:00 AM)19% (Sep 11, 4:00 PM)29.72 "Hg (Sep 18, 4:00 AM)
Average61 °F68%29.96 "Hg
* Reported Sep 7 3:00 AM — Sep 22 3:00 AM, Victoria, Weather by CustomWeather, © 2014

Note: Actual official high and low records may vary slightly from our data, if they occured in-between our weather recording intervals... More about our weather records

Advertising

Victoria weather history for previous 24 hours

 ConditionsComfort  
Time TempWeatherWind HumidityBarometerVisibility
3:00 AM
Sep 22
55 °FPassing clouds.2 mph88%29.90 "Hg30 mi
2:00 AM55 °FClear.No wind88%29.90 "Hg30 mi
1:00 AM59 °FClear.5 mph82%29.88 "Hg30 mi
12:00 AM61 °FPassing clouds.5 mph83%29.87 "Hg30 mi
11:00 PM
Sep 21
63 °FPassing clouds.5 mph77%29.86 "Hg30 mi
10:00 PM66 °FPassing clouds.7 mph68%29.85 "Hg30 mi
9:00 PM63 °FPassing clouds.5 mph73%29.83 "Hg30 mi
8:00 PM61 °FPassing clouds.No wind77%29.82 "Hg30 mi
7:00 PM64 °FPassing clouds.No wind73%29.81 "Hg30 mi
6:00 PM63 °FPassing clouds.5 mph73%29.80 "Hg30 mi
5:00 PM68 °FSunny.6 mph64%29.80 "Hg30 mi
4:00 PM68 °FSunny.7 mph60%29.81 "Hg30 mi
3:00 PM70 °FSunny.8 mph57%29.82 "Hg30 mi
2:00 PM70 °FSunny.10 mph53%29.83 "Hg30 mi
1:00 PM72 °FSunny.7 mph50%29.85 "Hg30 mi
12:00 PM73 °FSunny.6 mph44%29.85 "Hg30 mi
11:00 AM72 °FSunny.5 mph50%29.86 "Hg30 mi
10:00 AM66 °FPassing clouds.3 mph60%29.87 "Hg30 mi
9:00 AM61 °FPassing clouds.5 mph68%29.87 "Hg30 mi
8:00 AM57 °FPassing clouds.5 mph82%29.87 "Hg30 mi
7:00 AM54 °FPassing clouds.5 mph82%29.87 "Hg30 mi
6:00 AM54 °FClear.6 mph82%29.87 "Hg30 mi
5:00 AM54 °FClear.5 mph82%29.86 "Hg30 mi
4:00 AM54 °FClear.5 mph88%29.87 "Hg30 mi
Weather by CustomWeather, © 2014

See weather overviewHow to use our weather pages